1507532400.16,10447,10.75,72920.0,-5.39,-6.05,-6.13,0,*5E
1507532401.35,10448,10.75,72932.5,-5.35,-6.01,-6.09,0,*52
1507532402.56,10449,10.75,72940.5,-5.33,-6.01,-6.09,0,*55
1507532403.76,10450,10.75,72938.3,-5.35,-6.01,-6.13,0,*50
1507532404.95,10451,10.75,72952.8,-5.35,-6.01,-6.09,0,*5A
1507532406.14,10452,10.75,72948.5,-5.35,-6.01,-6.09,0,*59
1507532407.34,10453,10.75,72946.8,-5.35,-6.09,-6.09,0,*50
1507532408.53,10454,10.75,72926.3,-5.35,-6.09,-6.09,0,*57
1507532409.73,10455,10.75,72938.0,-5.35,-6.09,-6.13,0,*5D
1507532410.94,10456,10.75,72944.5,-5.33,-6.01,-6.09,0,*5B
1507532412.14,10457,10.75,72950.0,-5.35,-6.09,-6.09,0,*54
1507532413.34,10458,10.75,72956.5,-5.35,-6.09,-6.09,0,*5B
1507532414.53,10459,10.75,72954.3,-5.35,-6.09,-6.09,0,*5A
1507532415.72,10460,10.75,72952.3,-5.35,-6.09,-6.09,0,*50
1507532416.92,10461,10.75,72952.0,-5.35,-6.13,-6.13,0,*51
1507532418.14,10462,10.75,72948.8,-5.33,-6.09,-6.13,0,*5F
1507532419.36,10463,10.81,72954.0,-5.33,-6.09,-6.01,0,*5D
1507532420.55,10464,10.75,72950.3,-5.35,-6.01,-6.01,0,*54
1507532421.74,10465,10.81,72948.3,-5.35,-6.13,-6.13,0,*55
1507532422.96,10466,10.75,72942.3,-5.33,-6.09,-6.09,0,*50
1507532424.18,10467,10.75,72936.3,-5.33,-6.01,-6.13,0,*52
1507532425.4,10468,10.75,72936.3,-5.33,-6.09,-6.13,0,*55
1507532426.62,10469,10.75,72924.8,-5.33,-6.09,-6.09,0,*5F
1507532427.81,10470,10.81,72936.3,-5.35,-6.09,-6.09,0,*51
1507532429.03,10471,10.81,72948.3,-5.33,-6.09,-6.01,0,*5E
1507532430.25,10472,10.75,72948.5,-5.33,-6.09,-6.09,0,*55
1507532431.47,10473,10.75,72950.0,-5.33,-6.09,-6.09,0,*54
1507532432.69,10474,10.81,72948.5,-5.33,-6.01,-6.09,0,*5B
1507532433.91,10475,10.75,72944.5,-5.31,-5.97,-6.05,0,*58
1507532435.14,10476,10.81,72948.5,-5.31,-6.09,-6.05,0,*5F
1507532436.36,10477,10.75,72944.0,-5.31,-6.09,-6.05,0,*5E
1507532437.59,10478,10.81,72946.0,-5.31,-6.05,-6.05,0,*5D
1507532438.81,10479,10.81,72942.8,-5.31,-6.09,-6.05,0,*50
1507532440.03,10480,10.81,72936.5,-5.31,-6.05,-6.05,0,*5A
1507532441.25,10481,10.81,72942.0,-5.33,-6.13,-6.09,0,*52
1507532442.47,10482,10.75,72942.0,-5.31,-6.05,-6.05,0,*58
1507532443.66,10483,10.81,72944.3,-5.29,-6.05,-6.05,0,*50
1507532444.88,10484,10.81,72942.3,-5.31,-6.05,-6.05,0,*5E
1507532446.11,10485,10.81,72940.8,-5.31,-6.05,-6.05,0,*5F
1507532447.33,10486,10.75,72942.5,-5.31,-6.09,-6.09,0,*5C
1507532448.53,10487,10.75,72940.8,-5.29,-6.05,-6.09,0,*58
1507532449.75,10488,10.81,72942.3,-5.31,-6.05,-6.09,0,*5E
1507532450.95,10489,10.81,72944.8,-5.29,-6.05,-6.09,0,*56
1507532452.17,10490,10.81,72948.3,-5.31,-6.05,-6.05,0,*5B
1507532453.39,10491,10.81,72948.0,-5.31,-6.05,-6.05,0,*5A
1507532454.59,10492,10.81,72954.0,-5.29,-6.09,-6.09,0,*50
1507532455.8,10493,10.81,72948.0,-5.29,-6.09,-6.09,0,*51
1507532457.02,10494,10.81,72952.8,-5.31,-6.05,-6.09,0,*53
1507532458.22,10495,10.81,72952.3,-5.29,-6.09,-6.05,0,*5B
1507532459.42,10496,10.75,72952.8,-5.29,-6.05,-6.09,0,*58
1507532460.65,10497,10.81,72954.0,-5.31,-6.09,-6.09,0,*5C
1507532461.85,10498,10.81,72952.5,-5.29,-6.09,-6.09,0,*5A
1507532463.08,10499,10.75,72954.0,-5.31,-6.09,-6.09,0,*52
1507532464.27,10500,10.81,72956.0,-5.29,-6.05,-6.05,0,*5A
1507532465.47,10501,10.75,72952.3,-5.29,-6.05,-6.05,0,*5B
1507532466.67,10502,10.81,72954.8,-5.29,-6.09,-6.09,0,*58
1507532467.88,10503,10.81,72956.8,-5.29,-6.09,-6.05,0,*55
1507532469.07,10504,10.81,72952.3,-5.29,-6.05,-6.09,0,*52
1507532470.28,10505,10.75,72952.3,-5.29,-6.09,-6.05,0,*53
1507532471.48,10506,10.81,72954.3,-5.29,-6.09,-6.05,0,*50
1507532472.7,10507,10.81,72952.8,-5.27,-6.01,-6.05,0,*57
1507532473.95,10508,10.81,72956.0,-5.27,-5.93,-6.01,0,*54
1507532475.17,10509,10.81,72954.3,-5.27,-6.01,-6.05,0,*59
1507532476.42,10510,10.75,72948.8,-5.27,-5.89,-6.01,0,*56
1507532477.64,10511,10.81,72954.8,-5.27,-6.01,-6.01,0,*54
1507532478.89,10512,10.81,72954.8,-5.27,-5.93,-6.01,0,*5F
1507532480.11,10513,10.81,72960.0,-5.27,-6.01,-6.01,0,*56
1507532481.33,10514,10.81,72954.0,-5.27,-6.01,-6.01,0,*51
1507532482.55,10515,10.81,72954.3,-5.27,-6.05,-6.01,0,*54
1507532483.78,10516,10.81,72950.0,-5.25,-5.93,-6.01,0,*59
1507532485.0,10517,10.81,72954.0,-5.27,-6.01,-6.01,0,*52
1507532486.22,10518,10.81,72952.0,-5.27,-6.01,-6.05,0,*59
1507532487.41,10519,10.81,72950.0,-5.25,-6.05,-6.05,0,*5E
1507532488.63,10520,10.81,72946.8,-5.27,-6.01,-6.05,0,*52
1507532489.88,10521,10.81,72944.5,-5.27,-6.01,-5.93,0,*5F
1507532491.08,10522,10.81,72950.0,-5.25,-6.01,-6.01,0,*56
1507532492.28,10523,10.81,72956.0,-5.25,-6.01,-6.05,0,*53
1507532493.5,10524,10.81,72956.5,-5.27,-6.05,-6.01,0,*56
1507532494.72,10525,10.81,72948.8,-5.27,-6.01,-6.05,0,*57
1507532495.94,10526,10.81,72944.0,-5.27,-6.01,-6.01,0,*50
1507532497.19,10527,10.81,72950.8,-5.27,-5.93,-6.01,0,*59
1507532498.47,10528,10.81,72948.8,-5.27,-5.93,-5.93,0,*5E
1507532499.72,10529,10.81,72944.3,-5.25,-5.89,-5.93,0,*56
1507532500.98,10530,10.81,72938.5,-5.25,-5.93,-5.93,0,*55
1507532502.23,10531,10.81,72938.5,-5.25,-5.93,-5.93,0,*54
1507532503.48,10532,10.81,72940.0,-5.27,-5.93,-6.01,0,*5D
1507532504.74,10533,10.81,72946.5,-5.21,-5.89,-5.89,0,*52
1507532505.96,10534,10.81,72954.0,-5.25,-5.89,-6.01,0,*52
1507532507.19,10535,10.81,72954.8,-5.25,-5.93,-6.01,0,*58
1507532508.39,10536,10.81,72948.5,-5.25,-6.01,-6.01,0,*53
1507532509.58,10537,10.81,72948.0,-5.25,-6.05,-6.01,0,*56
1507532510.84,10538,10.81,72948.8,-5.21,-5.89,-5.89,0,*59
1507532512.03,10539,10.81,72946.8,-5.21,-5.97,-5.97,0,*58
1507532513.23,10540,10.81,72950.8,-5.21,-5.97,-5.97,0,*56
1507532514.45,10541,10.81,72944.0,-5.21,-5.89,-5.97,0,*58
1507532515.71,10542,10.81,72952.5,-5.21,-5.89,-5.89,0,*54
1507532516.93,10543,10.81,72950.3,-5.21,-5.89,-5.97,0,*5A
1507532518.15,10544,10.81,72948.5,-5.21,-5.89,-5.97,0,*5D
1507532519.35,10545,10.81,72950.0,-5.21,-5.97,-6.01,0,*5F
1507532520.55,10546,10.81,72944.8,-5.21,-5.97,-6.01,0,*5C
1507532521.77,10547,10.81,72936.3,-5.19,-6.01,-6.01,0,*5A
1507532522.97,10548,10.81,72942.5,-5.21,-5.97,-5.97,0,*5E
1507532524.16,10549,10.81,72946.0,-5.21,-5.97,-5.97,0,*5F
1507532525.38,10550,10.81,72944.5,-5.19,-6.01,-5.97,0,*50
1507532526.61,10551,10.81,72950.0,-5.19,-6.01,-5.97,0,*51
1507532527.8,10552,10.81,72952.0,-5.21,-5.97,-5.97,0,*55
1507532529.02,10553,10.81,72950.3,-5.19,-6.01,-5.97,0,*53
1507532530.22,10554,10.81,72950.3,-5.21,-6.01,-5.97,0,*5F
1507532531.42,10555,10.81,72950.0,-5.21,-6.01,-6.01,0,*52
1507532532.62,10556,10.81,72944.3,-5.21,-6.01,-6.01,0,*51
1507532533.81,10557,10.81,72942.0,-5.21,-6.01,-5.97,0,*5C
1507532535.07,10558,10.81,72952.0,-5.19,-5.97,-5.89,0,*5B
1507532536.29,10559,10.81,72936.0,-5.19,-5.97,-6.01,0,*59
1507532537.52,10560,10.81,72930.0,-5.21,-6.01,-5.89,0,*57
1507532538.74,10561,10.81,72920.5,-5.19,-6.01,-6.01,0,*5E
1507532539.98,10562,10.81,72916.8,-5.19,-5.89,-6.01,0,*5E
1507532541.23,10563,10.81,72922.0,-5.19,-5.85,-5.97,0,*5F
1507532542.48,10564,10.81,72936.3,-5.19,-5.89,-5.97,0,*54
1507532543.72,10565,10.81,72934.0,-5.19,-5.89,-5.97,0,*55
1507532544.94,10566,10.81,72940.3,-5.19,-5.97,-6.01,0,*55
1507532546.16,10567,10.81,72944.3,-5.19,-5.97,-6.01,0,*54
1507532547.39,10568,10.81,72950.0,-5.19,-5.97,-6.01,0,*5B
1507532548.6,10569,10.81,72954.3,-5.19,-5.97,-5.97,0,*56
1507532549.83,10570,10.81,72950.8,-5.19,-5.97,-6.01,0,*52
1507532551.05,10571,10.81,72952.8,-5.19,-5.97,-6.01,0,*53
1507532552.27,10572,10.81,72954.8,-5.19,-6.01,-6.01,0,*5C
1507532553.46,10573,10.81,72954.8,-5.17,-5.97,-5.97,0,*53
1507532554.66,10574,10.81,72954.3,-5.17,-5.97,-5.97,0,*54
1507532555.88,10575,10.81,72954.3,-5.17,-5.93,-5.97,0,*51
1507532557.13,10576,10.81,72948.0,-5.17,-5.93,-5.93,0,*56
1507532558.35,10577,10.81,72952.0,-5.17,-5.97,-5.93,0,*53
1507532559.61,10578,10.81,72952.3,-5.13,-5.93,-5.93,0,*5C
1507532560.83,10579,10.81,72952.0,-5.19,-6.01,-5.97,0,*5B
1507532562.05,10580,10.81,72950.3,-5.19,-5.97,-5.97,0,*51
1507532563.24,10581,10.81,72948.8,-5.17,-5.97,-5.97,0,*5E
1507532564.49,10582,10.81,72950.3,-5.19,-5.89,-5.97,0,*5C
1507532565.71,10583,10.81,72948.3,-5.17,-5.85,-5.97,0,*5F
1507532566.96,10584,10.81,72946.0,-5.17,-5.81,-5.93,0,*58
1507532568.22,10585,10.81,72948.0,-5.17,-5.85,-5.85,0,*5A
1507532569.47,10586,10.81,72944.5,-5.17,-5.85,-5.93,0,*5E
1507532570.72,10587,10.81,72944.5,-5.13,-5.81,-5.89,0,*54
1507532571.98,10588,10.81,72944.5,-5.17,-5.85,-5.93,0,*50
1507532573.2,10589,10.81,72942.8,-5.17,-5.93,-5.97,0,*52
1507532574.45,10590,10.81,72942.5,-5.13,-5.89,-5.93,0,*51
1507532575.64,10591,10.81,72946.8,-5.17,-5.97,-5.97,0,*5F
1507532576.89,10592,10.81,72942.8,-5.17,-5.93,-5.93,0,*5C
1507532578.14,10593,10.81,72938.3,-5.13,-5.89,-5.93,0,*52
1507532579.34,10594,10.81,72942.8,-5.17,-5.97,-5.97,0,*5A
1507532580.59,10595,10.81,72940.5,-5.13,-5.89,-5.93,0,*54
1507532581.84,10596,10.81,72946.8,-5.13,-5.89,-5.93,0,*57
1507532583.06,10597,10.81,72946.0,-5.17,-5.93,-5.97,0,*5D
1507532584.31,10598,10.81,72944.3,-5.17,-5.85,-5.93,0,*51
1507532585.56,10599,10.81,72944.5,-5.13,-5.89,-5.81,0,*5B
1507532586.81,10600,10.81,72946.0,-5.13,-5.89,-5.89,0,*50
1507532588.07,10601,10.81,72944.8,-5.17,-5.93,-5.93,0,*55
1507532589.32,10602,10.81,72952.5,-5.13,-5.85,-5.81,0,*56
1507532590.57,10603,10.81,72948.5,-5.13,-5.81,-5.81,0,*53
1507532591.82,10604,10.81,72952.8,-5.13,-5.77,-5.93,0,*5E
1507532593.07,10605,10.81,72942.5,-5.13,-5.81,-5.93,0,*56
1507532594.34,10606,10.81,72952.3,-5.11,-5.81,-5.89,0,*5C
1507532595.62,10607,10.81,72944.8,-5.11,-5.81,-5.89,0,*5D
1507532596.89,10608,10.81,72946.8,-5.11,-5.81,-5.89,0,*52
1507532598.15,10609,10.81,72954.3,-5.13,-5.81,-5.89,0,*51
1507532599.39,10610,10.81,72956.0,-5.13,-5.89,-5.81,0,*59
1507532600.67,10611,10.81,72952.5,-5.11,-5.81,-5.89,0,*5A
1507532601.94,10612,10.81,72954.5,-5.11,-5.89,-5.89,0,*51
1507532603.2,10613,10.81,72956.0,-5.09,-5.85,-5.85,0,*59
1507532604.45,10614,10.81,72956.0,-5.09,-5.77,-5.85,0,*53
1507532605.72,10615,10.81,72956.3,-5.11,-5.77,-5.89,0,*57
1507532606.97,10616,10.81,72956.8,-5.09,-5.73,-5.85,0,*55
1507532608.24,10617,10.81,72950.8,-5.11,-5.89,-5.93,0,*5F
1507532609.49,10618,10.81,72956.3,-5.09,-5.77,-5.77,0,*52
1507532610.74,10619,10.81,72958.3,-5.09,-5.77,-5.89,0,*52
1507532611.99,10620,10.81,72956.8,-5.09,-5.89,-5.89,0,*59
1507532613.24,10621,10.81,72954.0,-5.09,-5.85,-5.89,0,*54
1507532614.5,10622,10.81,72952.3,-5.09,-5.85,-5.89,0,*57
1507532615.75,10623,10.81,72960.8,-5.09,-5.89,-5.85,0,*56
1507532617.0,10624,10.81,72960.3,-5.09,-5.85,-5.89,0,*51
1507532618.26,10625,10.81,72960.5,-5.09,-5.85,-5.89,0,*50
1507532619.51,10626,10.81,72960.3,-5.09,-5.89,-5.85,0,*53
1507532620.77,10627,10.81,72960.3,-5.09,-5.85,-5.89,0,*52
1507532622.02,10628,10.81,72956.3,-5.09,-5.89,-5.85,0,*5D
1507532623.28,10629,10.81,72958.3,-5.09,-5.93,-5.85,0,*57
1507532624.53,10630,10.81,72964.0,-5.09,-5.89,-5.85,0,*54
1507532625.78,10631,10.81,72962.8,-5.09,-5.85,-5.89,0,*55
1507532627.04,10632,10.81,72960.0,-5.09,-5.85,-5.85,0,*5A
1507532628.31,10633,10.81,72966.5,-5.07,-5.81,-5.81,0,*55
1507532629.59,10634,10.81,72956.8,-5.07,-5.85,-5.89,0,*5E
1507532630.87,10635,10.81,72960.3,-5.07,-5.85,-5.85,0,*53
1507532632.12,10636,10.81,72940.0,-5.09,-5.89,-5.85,0,*52
1507532633.37,10637,10.81,72928.3,-5.09,-5.85,-5.89,0,*53
1507532634.62,10638,10.81,72930.0,-5.09,-5.89,-5.77,0,*51
1507532635.88,10639,10.81,72936.5,-5.09,-5.85,-5.85,0,*51
1507532637.13,10640,10.81,72944.3,-5.09,-5.85,-5.85,0,*5F
1507532638.4,10641,10.81,72928.0,-5.07,-5.81,-5.81,0,*50
1507532639.68,10642,10.81,72940.5,-5.07,-5.85,-5.85,0,*53
1507532640.94,10643,10.81,72950.0,-5.05,-5.85,-5.85,0,*50
1507532642.22,10644,10.81,72948.5,-5.07,-5.89,-5.89,0,*55
1507532643.41,10645,10.81,72954.5,-5.05,-5.97,-5.97,0,*56
1507532644.66,10646,10.81,72952.8,-5.07,-5.89,-5.97,0,*58
1507532645.93,10647,10.81,72952.0,-5.07,-5.89,-5.89,0,*56
1507532647.2,10648,10.88,72958.8,-5.07,-5.89,-5.89,0,*59
1507532648.42,10649,10.81,72958.8,-5.07,-5.97,-5.97,0,*58
1507532649.68,10650,10.81,72962.0,-5.05,-5.89,-5.89,0,*52
1507532650.92,10651,10.81,72960.8,-5.07,-5.89,-5.97,0,*5E
1507532652.11,10652,10.81,72958.5,-5.09,-6.01,-6.01,0,*5C
1507532653.31,10653,10.81,72958.3,-5.09,-6.01,-6.05,0,*59
1507532654.52,10654,10.81,72958.8,-5.11,-6.05,-6.05,0,*53
1507532655.74,10655,10.81,72960.8,-5.07,-5.97,-5.97,0,*55
1507532656.96,10656,10.81,72968.5,-5.09,-5.93,-6.01,0,*50
1507532658.18,10657,10.81,72962.0,-5.09,-5.93,-6.01,0,*51
1507532659.43,10658,10.81,72940.3,-5.07,-5.89,-5.97,0,*57
1507532660.68,10659,10.81,72944.8,-5.05,-5.89,-5.89,0,*5B
1507532661.96,10660,10.88,72950.5,-5.07,-5.89,-5.89,0,*53
1507532663.21,10661,10.81,72942.0,-5.09,-5.89,-5.93,0,*57
1507532664.48,10662,10.81,72950.3,-5.07,-5.81,-5.85,0,*55
1507532665.76,10663,10.81,72954.0,-5.07,-5.85,-5.85,0,*50
1507532667.04,10664,10.88,72944.0,-5.07,-5.85,-5.85,0,*57
1507532668.32,10665,10.81,72938.8,-5.07,-5.85,-5.85,0,*56
1507532669.59,10666,10.81,72934.5,-5.07,-5.85,-5.81,0,*51
1507532670.87,10667,10.81,72938.0,-5.07,-5.85,-5.85,0,*54
1507532672.13,10668,10.88,72946.8,-5.05,-5.85,-5.85,0,*59
1507532673.41,10669,10.81,72944.3,-5.07,-5.85,-5.85,0,*5A
1507532674.69,10670,10.81,72946.8,-5.07,-5.85,-5.89,0,*5E
1507532675.97,10671,10.88,72950.5,-5.07,-5.85,-5.89,0,*5F
1507532677.25,10672,10.81,72950.0,-5.07,-5.85,-5.89,0,*5C
1507532678.49,10673,10.88,72954.5,-5.07,-5.89,-5.97,0,*5E
1507532679.76,10674,10.88,72952.8,-5.07,-5.89,-5.89,0,*56
1507532680.98,10675,10.88,72956.0,-5.05,-5.89,-5.97,0,*5A
1507532682.26,10676,10.88,72956.8,-5.07,-5.89,-5.89,0,*54
1507532683.53,10677,10.81,72956.0,-5.07,-5.89,-5.89,0,*55
1507532684.81,10678,10.81,72956.8,-5.07,-5.89,-5.89,0,*5A
1507532686.08,10679,10.88,72958.5,-5.07,-5.89,-5.85,0,*57
1507532687.36,10680,10.81,72954.3,-5.07,-5.85,-5.85,0,*5D
1507532688.64,10681,10.88,72960.3,-5.07,-5.85,-5.85,0,*5C
1507532689.9,10682,10.81,72958.0,-5.05,-5.85,-5.85,0,*5D
1507532691.18,10683,10.88,72960.3,-5.07,-5.85,-5.89,0,*52
1507532692.42,10684,10.81,72958.0,-5.07,-5.89,-5.97,0,*56
1507532693.67,10685,10.81,72960.8,-5.07,-5.89,-6.01,0,*5B
1507532694.88,10686,10.88,72962.3,-5.07,-5.97,-5.97,0,*5B
1507532696.13,10687,10.88,72966.5,-5.07,-5.89,-5.97,0,*55
1507532697.34,10688,10.88,72966.8,-5.07,-5.97,-5.97,0,*55
1507532698.56,10689,10.81,72964.8,-5.07,-5.97,-5.97,0,*54
1507532699.78,10690,10.81,72970.8,-5.07,-6.01,-6.01,0,*5C
1507532700.97,10691,10.81,72968.8,-5.09,-6.05,-6.13,0,*54
1507532702.16,10692,10.88,72970.0,-5.09,-6.01,-6.05,0,*54
1507532703.36,10693,10.88,72972.3,-5.09,-6.01,-6.13,0,*52
1507532704.55,10694,10.81,72974.8,-5.09,-6.05,-6.05,0,*56
1507532705.82,10695,10.88,72970.5,-5.11,-6.19,-6.19,0,*5E
1507532707.01,10696,10.81,72958.5,-5.09,-6.05,-6.13,0,*53
1507532708.2,10697,10.88,72960.3,-5.09,-6.05,-6.05,0,*55
1507532709.43,10698,10.88,72976.8,-5.11,-6.09,-6.09,0,*53
1507532710.62,10699,10.88,72976.3,-5.09,-6.05,-6.09,0,*57
1507532711.81,10700,10.88,72966.0,-5.09,-6.05,-6.05,0,*5A
1507532713.02,10701,10.88,72970.5,-5.11,-6.05,-5.97,0,*5A
1507532714.21,10702,10.88,72968.0,-5.09,-6.01,-6.01,0,*58
1507532715.41,10703,10.88,72964.0,-5.09,-6.01,-6.01,0,*59
1507532716.62,10704,10.88,72960.8,-5.11,-6.05,-6.05,0,*57
1507532717.82,10705,10.88,72962.0,-5.09,-6.01,-6.01,0,*5F
1507532719.01,10706,10.88,72948.5,-5.09,-6.05,-6.05,0,*5C
1507532720.26,10707,10.88,72964.0,-5.09,-5.93,-5.93,0,*5D
1507532721.45,10708,10.88,72966.8,-5.09,-5.97,-5.97,0,*52
1507532722.65,10709,10.88,72966.3,-5.09,-6.01,-6.01,0,*53
1507532723.84,10710,10.88,72968.3,-5.09,-6.05,-6.05,0,*5B
1507532725.06,10711,10.88,72966.3,-5.11,-5.97,-6.01,0,*5F
1507532726.25,10712,10.81,72966.0,-5.09,-6.05,-6.05,0,*59
1507532727.44,10713,10.81,72958.8,-5.09,-6.05,-6.05,0,*58
1507532728.63,10714,10.88,72960.3,-5.09,-6.01,-6.13,0,*5C
1507532729.83,10715,10.88,72964.0,-5.09,-6.01,-6.01,0,*5E
1507532731.02,10716,10.88,72960.0,-5.09,-6.01,-6.13,0,*5E
1507532732.22,10717,10.88,72958.3,-5.09,-6.01,-6.13,0,*5F
1507532733.41,10718,10.88,72960.8,-5.09,-6.05,-6.05,0,*53
1507532734.63,10719,10.88,72948.5,-5.09,-6.05,-6.19,0,*5F
1507532735.85,10720,10.88,72950.3,-5.11,-6.09,-6.09,0,*51
1507532737.1,10721,10.88,72950.3,-5.11,-6.09,-6.19,0,*51
1507532738.32,10722,10.88,72950.8,-5.11,-6.09,-6.09,0,*53
1507532739.54,10723,10.88,72954.5,-5.07,-5.97,-6.01,0,*59
1507532740.76,10724,10.88,72948.3,-5.11,-6.09,-6.09,0,*55
1507532742.01,10725,10.88,72950.0,-5.11,-6.09,-6.19,0,*55
1507532743.2,10726,10.88,72954.0,-5.09,-6.05,-6.05,0,*5E
1507532744.42,10727,10.88,72950.3,-5.09,-5.93,-6.01,0,*57
1507532745.64,10728,10.88,72954.3,-5.09,-5.93,-6.05,0,*5C
1507532746.89,10729,10.88,72958.5,-5.11,-6.05,-6.19,0,*55
1507532748.08,10730,10.88,72956.8,-5.09,-6.13,-6.05,0,*5E
1507532749.27,10731,10.81,72950.5,-5.09,-6.05,-6.05,0,*58
1507532750.49,10732,10.88,72958.3,-5.11,-6.09,-6.09,0,*52
1507532751.69,10733,10.88,72958.5,-5.09,-6.09,-6.09,0,*5A
1507532752.93,10734,10.88,72962.3,-5.11,-6.05,-6.19,0,*59
1507532754.15,10735,10.88,72960.3,-5.11,-6.09,-6.09,0,*55
1507532755.4,10736,10.88,72960.3,-5.11,-6.09,-6.19,0,*57
1507532756.6,10737,10.88,72962.3,-5.09,-6.09,-6.09,0,*5E
1507532757.82,10738,10.88,72956.0,-5.11,-6.09,-6.09,0,*58
1507532759.01,10739,10.88,72956.0,-5.09,-6.05,-6.13,0,*57
1507532760.25,10740,10.88,72958.8,-5.11,-6.05,-6.19,0,*5A
1507532761.47,10741,10.88,72962.3,-5.11,-6.09,-6.09,0,*56
1507532762.75,10742,10.88,72960.5,-5.11,-6.19,-6.19,0,*55
1507532763.97,10743,10.88,72960.3,-5.11,-6.09,-6.09,0,*54
1507532765.21,10744,10.88,72960.3,-5.11,-6.19,-6.09,0,*52
1507532766.44,10745,10.88,72960.8,-5.13,-6.09,-6.19,0,*51
1507532767.69,10746,10.88,72962.5,-5.13,-6.19,-6.19,0,*53
1507532768.94,10747,10.88,72958.5,-5.13,-6.19,-6.23,0,*5B
1507532770.18,10748,10.88,72962.8,-5.17,-6.23,-6.27,0,*5D
1507532771.43,10749,10.88,72958.8,-5.13,-6.19,-6.19,0,*5C
1507532772.65,10750,10.88,72962.5,-5.17,-6.13,-6.23,0,*53
1507532773.9,10751,10.88,72960.0,-5.13,-6.19,-6.19,0,*55
1507532775.15,10752,10.88,72962.0,-5.17,-6.23,-6.23,0,*52
1507532776.37,10753,10.88,72962.0,-5.17,-6.13,-6.23,0,*50
1507532777.62,10754,10.88,72958.8,-5.13,-6.19,-6.19,0,*50
1507532778.86,10755,10.88,72954.5,-5.13,-6.19,-6.23,0,*58
1507532780.11,10756,10.88,72958.5,-5.17,-6.23,-6.27,0,*52
1507532781.35,10757,10.88,72956.8,-5.17,-6.23,-6.27,0,*53
1507532782.57,10758,10.88,72956.3,-5.17,-6.13,-6.23,0,*5B
1507532783.79,10759,10.88,72954.8,-5.17,-6.13,-6.23,0,*5A
1507532785.01,10760,10.88,72954.8,-5.17,-6.13,-6.23,0,*50
1507532786.25,10761,10.88,72956.3,-5.17,-6.23,-6.23,0,*52
1507532787.47,10762,10.88,72952.0,-5.17,-6.13,-6.27,0,*56
1507532788.72,10763,10.88,72950.8,-5.19,-6.27,-6.31,0,*59
1507532789.97,10764,10.88,72952.5,-5.19,-6.27,-6.31,0,*5E
1507532791.21,10765,10.88,72952.0,-5.19,-6.27,-6.39,0,*57
1507532792.46,10766,10.88,72952.0,-5.19,-6.27,-6.31,0,*5C
1507532793.72,10767,10.88,72954.3,-5.19,-6.27,-6.27,0,*5A
1507532794.97,10768,10.88,72954.3,-5.19,-6.27,-6.31,0,*52
1507532796.22,10769,10.88,72958.8,-5.19,-6.27,-6.31,0,*53
1507532797.47,10770,10.88,72956.3,-5.19,-6.27,-6.31,0,*5B
1507532798.72,10771,10.88,72956.3,-5.19,-6.19,-6.39,0,*5F
1507532799.98,10772,10.88,72958.3,-5.19,-6.27,-6.27,0,*5E
1507532801.23,10773,10.88,72956.3,-5.19,-6.27,-6.31,0,*58
1507532802.48,10774,10.88,72954.8,-5.19,-6.27,-6.31,0,*5F
1507532803.68,10775,10.88,72952.3,-5.21,-6.31,-6.39,0,*5A
1507532804.88,10776,10.88,72956.0,-5.21,-6.31,-6.31,0,*51
1507532806.11,10777,10.88,72952.8,-5.19,-6.31,-6.39,0,*53
1507532807.32,10778,10.88,72950.0,-5.19,-6.39,-6.39,0,*54
1507532808.53,10779,10.88,72954.8,-5.21,-6.31,-6.31,0,*5E
1507532809.73,10780,10.88,72954.8,-5.21,-6.31,-6.31,0,*58
1507532810.94,10781,10.88,72948.5,-5.21,-6.39,-6.31,0,*51
1507532812.16,10782,10.88,72952.8,-5.21,-6.27,-6.31,0,*5D
1507532813.41,10783,10.88,72952.3,-5.21,-6.19,-6.27,0,*56
1507532814.64,10784,10.88,72954.0,-5.21,-6.19,-6.31,0,*56
1507532815.89,10785,10.88,72958.8,-5.21,-6.27,-6.27,0,*5D
1507532817.13,10786,10.88,72956.3,-5.21,-6.27,-6.27,0,*5E
1507532818.38,10787,10.88,72962.5,-5.21,-6.27,-6.27,0,*5F
1507532819.63,10788,10.88,72952.3,-5.21,-6.27,-6.19,0,*5D
1507532820.9,10789,10.88,72952.8,-5.19,-6.27,-6.27,0,*5A
1507532822.14,10790,10.88,72956.3,-5.21,-6.23,-6.23,0,*59
1507532823.39,10791,10.88,72960.8,-5.21,-6.19,-6.27,0,*55
1507532824.64,10792,10.88,72962.3,-5.21,-6.27,-6.27,0,*5B
1507532825.87,10793,10.88,72962.5,-5.21,-6.27,-6.31,0,*5D
1507532827.06,10794,10.88,72970.0,-5.21,-6.31,-6.39,0,*55
1507532828.29,10795,10.88,72970.0,-5.21,-6.27,-6.31,0,*5B
1507532829.51,10796,10.88,72964.3,-5.25,-6.23,-6.35,0,*5C
1507532830.72,10797,10.88,72964.0,-5.25,-6.31,-6.35,0,*5E
1507532831.92,10798,10.88,72962.8,-5.25,-6.31,-6.35,0,*51
1507532833.12,10799,10.88,72962.8,-5.25,-6.43,-6.43,0,*54
1507532834.33,10800,10.88,72964.0,-5.25,-6.35,-6.43,0,*5A
1507532835.53,10801,10.88,72964.5,-5.25,-6.35,-6.35,0,*5A
1507532836.74,10802,10.88,72964.0,-5.25,-6.43,-6.43,0,*59
1507532837.96,10803,10.88,72964.0,-5.27,-6.43,-6.43,0,*5A
1507532839.19,10804,10.88,72966.5,-5.27,-6.43,-6.43,0,*5D
1507532840.39,10805,10.88,72964.3,-5.25,-6.35,-6.35,0,*5E
1507532841.62,10806,10.88,72962.5,-5.27,-6.43,-6.35,0,*5E
1507532842.85,10807,10.88,72962.8,-5.27,-6.31,-6.43,0,*5B
1507532844.05,10808,10.88,72964.8,-5.25,-6.35,-6.43,0,*52
1507532845.28,10809,10.88,72966.8,-5.27,-6.43,-6.35,0,*51
1507532846.51,10810,10.88,72966.3,-5.27,-6.35,-6.43,0,*59
1507532847.73,10811,10.88,72964.8,-5.27,-6.43,-6.35,0,*58
1507532848.96,10812,10.88,72970.0,-5.27,-6.35,-6.43,0,*5B
1507532850.19,10813,10.88,72972.0,-5.27,-6.35,-6.35,0,*5B
1507532851.42,10814,10.88,72970.5,-5.27,-6.35,-6.35,0,*5C
1507532852.65,10815,10.88,72966.8,-5.27,-6.35,-6.35,0,*5D
1507532853.88,10816,10.88,72968.0,-5.27,-6.35,-6.35,0,*5E
1507532855.11,10817,10.88,72970.8,-5.29,-6.27,-6.35,0,*52
1507532856.33,10818,10.88,72970.8,-5.29,-6.27,-6.35,0,*5D
1507532857.54,10819,10.88,72962.8,-5.29,-6.35,-6.35,0,*5F
1507532858.75,10820,10.88,72964.8,-5.29,-6.35,-6.39,0,*59
1507532860.0,10821,10.88,72966.5,-5.29,-6.23,-6.27,0,*50
1507532861.25,10822,10.88,72962.5,-5.29,-6.23,-6.27,0,*53
1507532862.5,10823,10.88,72966.0,-5.29,-6.23,-6.27,0,*52
1507532863.75,10824,10.88,72960.5,-5.27,-6.09,-6.23,0,*57
1507532865.0,10825,10.88,72958.8,-5.27,-6.09,-6.19,0,*5F
1507532866.25,10826,10.88,72960.5,-5.29,-6.23,-6.27,0,*57
1507532867.5,10827,10.88,72956.5,-5.29,-6.27,-6.27,0,*52
1507532868.77,10828,10.88,72958.8,-5.31,-6.27,-6.27,0,*54
1507532870.02,10829,10.88,72954.0,-5.29,-6.23,-6.27,0,*58
1507532871.27,10830,10.88,72954.5,-5.29,-6.23,-6.23,0,*54
1507532872.5,10831,10.88,72954.5,-5.29,-6.13,-6.27,0,*52
1507532873.73,10832,10.88,72956.0,-5.29,-6.23,-6.13,0,*55
1507532874.95,10833,10.88,72958.3,-5.29,-6.13,-6.23,0,*54
1507532876.2,10834,10.88,72958.8,-5.29,-6.23,-6.27,0,*54
1507532877.45,10835,10.88,72954.3,-5.29,-6.23,-6.23,0,*51
1507532878.7,10836,10.88,72958.8,-5.29,-6.23,-6.27,0,*56
1507532879.95,10837,10.88,72956.0,-5.29,-6.23,-6.27,0,*57
1507532881.16,10838,10.88,72958.0,-5.29,-6.35,-6.35,0,*5C
1507532882.36,10839,10.88,72960.3,-5.29,-6.39,-6.39,0,*5D
1507532883.56,10840,10.88,72960.5,-5.29,-6.39,-6.39,0,*53
1507532884.76,10841,10.88,72956.0,-5.29,-6.39,-6.47,0,*5B
1507532885.96,10842,10.88,72956.8,-5.29,-6.47,-6.39,0,*58
1507532887.18,10843,10.88,72962.0,-5.31,-6.39,-6.39,0,*59
1507532888.43,10844,10.88,72962.5,-5.31,-6.27,-6.39,0,*51
1507532889.66,10845,10.88,72960.3,-5.31,-6.35,-6.35,0,*5F
1507532890.89,10846,10.88,72954.3,-5.31,-6.35,-6.39,0,*50
1507532892.1,10847,10.88,72962.5,-5.29,-6.35,-6.39,0,*58
1507532893.33,10848,10.88,72958.0,-5.31,-6.35,-6.39,0,*5E
1507532894.54,10849,10.88,72956.5,-5.29,-6.35,-6.47,0,*5F
1507532895.76,10850,10.88,72956.8,-5.31,-6.35,-6.39,0,*57
1507532897.0,10851,10.88,72956.8,-5.31,-6.35,-6.47,0,*5F
1507532898.22,10852,10.88,72958.8,-5.31,-6.39,-6.47,0,*50
1507532899.43,10853,10.88,72956.5,-5.29,-6.47,-6.47,0,*51
1507532900.65,10854,10.88,72956.5,-5.31,-6.39,-6.47,0,*56
1507532901.88,10855,10.88,72958.3,-5.31,-6.47,-6.39,0,*57
1507532903.1,10856,10.94,72960.8,-5.31,-6.39,-6.39,0,*5D
1507532904.32,10857,10.88,72960.3,-5.31,-6.39,-6.47,0,*55
1507532905.55,10858,10.88,72956.5,-5.31,-6.47,-6.39,0,*5A
1507532906.77,10859,10.88,72960.3,-5.31,-6.47,-6.47,0,*52
1507532908.0,10860,10.88,72960.5,-5.33,-6.51,-6.43,0,*59